Flag for Mexico Weather past 2 weeks in Matamoros, Tamaulipas, Mexico

Now
79 °F

Clear.


Feels Like: 83 °F
Forecast: 78 / 96 °F
Wind: 9 mph from South

Location: Brownsville / South Padre Island International Airport

Current Time: Aug 1, 2014 at 5:49:36 AM

Latest Report: Aug 1, 2014 at 4:53 AM


Visibility: 10 mi

Pressure: 29.90 "Hg

Humidity: 90%

Dew point: 76 °F

Location of MatamorosLocation

Historic Weather in Matamoros — Graph

°F

Matamoros temperature yesterday

Maximum temperature yesterday: 96 °F (at 2:53 PM)
Minimum temperature yesterday: 78 °F (at 5:53 AM)
Average temperature yesterday: 86 °F

Past Weeks' High & Low Weather Summary

 TemperatureHumidityPressure
High96 °F (Jul 19, 3:53 PM)100% (Jul 19, 8:04 AM)30.09 "Hg (Jul 19, 8:04 AM)
Low75 °F (Jul 29, 5:53 AM)44% (Jul 24, 12:53 PM)29.78 "Hg (Jul 17, 7:53 PM)
Average85 °F75%29.96 "Hg
* Reported Jul 17 3:53 AM — Aug 1 3:53 AM, Matamoros, Weather by CustomWeather, © 2014

Note: Actual official high and low records may vary slightly from our data, if they occured in-between our weather recording intervals... More about our weather records

Advertising

Matamoros weather history for previous 24 hours

 ConditionsComfort  
Time TempWeatherWind HumidityBarometerVisibility
3:53 AM
Aug 1
80 °FClear.10 mph87%29.90 "Hg10 mi
2:53 AM80 °FClear.9 mph87%29.91 "Hg10 mi
1:53 AM80 °FPassing clouds.9 mph87%29.93 "Hg10 mi
12:53 AM80 °FClear.9 mph87%29.95 "Hg10 mi
11:53 PM
Jul 31
82 °FPassing clouds.8 mph82%29.94 "Hg10 mi
10:53 PM82 °FPassing clouds.9 mph82%29.92 "Hg10 mi
9:53 PM83 °FClear.10 mph79%29.91 "Hg10 mi
8:53 PM84 °FSunny.13 mph77%29.90 "Hg10 mi
7:53 PM86 °FSunny.16 mph65%29.89 "Hg10 mi
6:53 PM89 °FPassing clouds.18 mph61%29.89 "Hg10 mi
5:53 PM91 °FSunny.18 mph57%29.89 "Hg10 mi
4:53 PM92 °FPassing clouds.20 mph54%29.90 "Hg10 mi
3:53 PM95 °FSunny.15 mph51%29.91 "Hg10 mi
2:53 PM96 °FPassing clouds.17 mph47%29.91 "Hg10 mi
1:53 PM95 °FScattered clouds.20 mph47%29.93 "Hg10 mi
12:53 PM95 °FPassing clouds.20 mph49%29.93 "Hg10 mi
11:53 AM93 °FPassing clouds.16 mph54%29.94 "Hg10 mi
10:53 AM91 °FScattered clouds.18 mph57%29.93 "Hg10 mi
9:53 AM89 °FScattered clouds.23 mph63%29.93 "Hg10 mi
8:53 AM85 °FPassing clouds.18 mph77%29.93 "Hg10 mi
7:53 AM80 °FClear.8 mph90%29.92 "Hg10 mi
6:53 AM78 °FPassing clouds.8 mph90%29.92 "Hg10 mi
5:53 AM78 °FClear.7 mph93%29.92 "Hg10 mi
Weather by CustomWeather, © 2014

See weather overviewHow to use our weather pages